Year,Month,Day,Hour,Minute,Value (Times are PST for temperature in C)
2007,07,04,00,00,15.20
2007,07,04,00,01,15.20
2007,07,04,00,02,15.20
2007,07,04,00,03,15.20
2007,07,04,00,04,15.20
2007,07,04,00,05,15.10
2007,07,04,00,06,15.10
2007,07,04,00,07,15.10
2007,07,04,00,08,15.10
2007,07,04,00,09,15.10
2007,07,04,00,10,15.00
2007,07,04,00,11,15.00
2007,07,04,00,12,15.00
2007,07,04,00,13,15.00
2007,07,04,00,14,15.00
2007,07,04,00,15,15.10
2007,07,04,00,16,15.10
2007,07,04,00,17,15.10
2007,07,04,00,18,15.20
2007,07,04,00,19,15.20
2007,07,04,00,20,15.20
2007,07,04,00,21,15.20
2007,07,04,00,22,15.20
2007,07,04,00,23,15.20
2007,07,04,00,24,15.20
2007,07,04,00,25,15.20
2007,07,04,00,26,15.20
2007,07,04,00,27,15.20
2007,07,04,00,28,15.20
2007,07,04,00,29,15.20
2007,07,04,00,30,15.20
2007,07,04,00,31,15.20
2007,07,04,00,32,15.20
2007,07,04,00,33,15.20
2007,07,04,00,34,15.20
2007,07,04,00,35,15.20
2007,07,04,00,36,15.20
2007,07,04,00,37,15.20
2007,07,04,00,38,15.20
2007,07,04,00,39,15.20
2007,07,04,00,40,15.20
2007,07,04,00,41,15.20
2007,07,04,00,42,15.20
2007,07,04,00,43,15.20
2007,07,04,00,44,15.20
2007,07,04,00,45,15.20
2007,07,04,00,46,15.20
2007,07,04,00,47,15.20
2007,07,04,00,48,15.10
2007,07,04,00,49,15.10
2007,07,04,00,50,15.10
2007,07,04,00,51,15.00
2007,07,04,00,52,15.00
2007,07,04,00,53,15.00
2007,07,04,00,54,15.00
2007,07,04,00,55,15.00
2007,07,04,00,56,15.00
2007,07,04,00,57,15.00
2007,07,04,00,58,15.00
2007,07,04,00,59,15.00
2007,07,04,01,00,15.00
2007,07,04,01,01,15.00
2007,07,04,01,02,15.00
2007,07,04,01,03,15.00
2007,07,04,01,04,15.00
2007,07,04,01,05,15.00
2007,07,04,01,06,15.00
2007,07,04,01,07,15.00
2007,07,04,01,08,15.00
2007,07,04,01,09,14.90
2007,07,04,01,10,14.80
2007,07,04,01,11,14.80
2007,07,04,01,12,14.70
2007,07,04,01,13,14.70
2007,07,04,01,14,14.70
2007,07,04,01,15,14.60
2007,07,04,01,16,14.60
2007,07,04,01,17,14.60
2007,07,04,01,18,14.50
2007,07,04,01,19,14.40
2007,07,04,01,20,14.40
2007,07,04,01,21,14.30
2007,07,04,01,22,14.30
2007,07,04,01,23,14.30
2007,07,04,01,24,14.20
2007,07,04,01,25,14.20
2007,07,04,01,26,14.20
2007,07,04,01,27,14.20
2007,07,04,01,28,14.20
2007,07,04,01,29,14.20
2007,07,04,01,30,14.20
2007,07,04,01,31,14.10
2007,07,04,01,32,14.10
2007,07,04,01,33,14.10
2007,07,04,01,34,14.00
2007,07,04,01,35,14.00
2007,07,04,01,36,14.00
2007,07,04,01,37,14.00
2007,07,04,01,38,14.00
2007,07,04,01,39,14.00
2007,07,04,01,40,13.90
2007,07,04,01,41,13.90
2007,07,04,01,42,13.90
2007,07,04,01,43,13.90
2007,07,04,01,44,13.90
2007,07,04,01,45,13.80
2007,07,04,01,46,13.80
2007,07,04,01,47,13.80
2007,07,04,01,48,13.80
2007,07,04,01,49,13.80
2007,07,04,01,50,13.80
2007,07,04,01,51,13.80
2007,07,04,01,52,13.70
2007,07,04,01,53,13.70
2007,07,04,01,54,13.70
2007,07,04,01,55,13.70
2007,07,04,01,56,13.70
2007,07,04,01,57,13.70
2007,07,04,01,58,13.70
2007,07,04,01,59,13.70
2007,07,04,02,00,13.60
2007,07,04,02,01,13.60
2007,07,04,02,02,13.60
2007,07,04,02,03,13.60
2007,07,04,02,04,13.60
2007,07,04,02,05,13.70
2007,07,04,02,06,13.70
2007,07,04,02,07,13.70
2007,07,04,02,08,13.70
2007,07,04,02,09,13.70
2007,07,04,02,10,13.70
2007,07,04,02,11,13.70
2007,07,04,02,12,13.60
2007,07,04,02,13,13.60
2007,07,04,02,14,13.60
2007,07,04,02,15,13.60
2007,07,04,02,16,13.50
2007,07,04,02,17,13.50
2007,07,04,02,18,13.50
2007,07,04,02,19,13.50
2007,07,04,02,20,13.40
2007,07,04,02,21,13.40
2007,07,04,02,22,13.40
2007,07,04,02,23,13.40
2007,07,04,02,24,13.30
2007,07,04,02,25,13.30
2007,07,04,02,26,13.30
2007,07,04,02,27,13.20
2007,07,04,02,28,13.20
2007,07,04,02,29,13.20
2007,07,04,02,30,13.10
2007,07,04,02,31,13.10
2007,07,04,02,32,13.10
2007,07,04,02,33,13.00
2007,07,04,02,34,13.00
2007,07,04,02,35,13.00
2007,07,04,02,36,12.90
2007,07,04,02,37,12.90
2007,07,04,02,38,12.90
2007,07,04,02,39,12.90
2007,07,04,02,40,12.90
2007,07,04,02,41,12.90
2007,07,04,02,42,12.90
2007,07,04,02,43,12.90
2007,07,04,02,44,12.90
2007,07,04,02,45,12.90
2007,07,04,02,46,12.90
2007,07,04,02,47,12.80
2007,07,04,02,48,12.80
2007,07,04,02,49,12.80
2007,07,04,02,50,12.80
2007,07,04,02,51,12.80
2007,07,04,02,52,12.80
2007,07,04,02,53,12.80
2007,07,04,02,54,12.80
2007,07,04,02,55,12.70
2007,07,04,02,56,12.70
2007,07,04,02,57,12.70
2007,07,04,02,58,12.70
2007,07,04,02,59,12.70
2007,07,04,03,00,12.70
2007,07,04,03,01,12.70
2007,07,04,03,02,12.70
2007,07,04,03,03,12.70
2007,07,04,03,04,12.70
2007,07,04,03,05,12.70
2007,07,04,03,06,12.70
2007,07,04,03,07,12.70
2007,07,04,03,08,12.70
2007,07,04,03,09,12.70
2007,07,04,03,10,12.70
2007,07,04,03,11,12.70
2007,07,04,03,12,12.60
2007,07,04,03,13,12.60
2007,07,04,03,14,12.60
2007,07,04,03,15,12.60
2007,07,04,03,16,12.60
2007,07,04,03,17,12.60
2007,07,04,03,18,12.60
2007,07,04,03,19,12.60
2007,07,04,03,20,12.60
2007,07,04,03,21,12.60
2007,07,04,03,22,12.60
2007,07,04,03,23,12.50
2007,07,04,03,24,12.60
2007,07,04,03,25,12.60
2007,07,04,03,26,12.50
2007,07,04,03,27,12.50
2007,07,04,03,28,12.50
2007,07,04,03,29,12.50
2007,07,04,03,30,12.50
2007,07,04,03,31,12.50
2007,07,04,03,32,12.50
2007,07,04,03,33,12.50
2007,07,04,03,34,12.50
2007,07,04,03,35,12.50
2007,07,04,03,36,12.50
2007,07,04,03,37,12.50
2007,07,04,03,38,12.50
2007,07,04,03,39,12.50
2007,07,04,03,40,12.50
2007,07,04,03,41,12.50
2007,07,04,03,42,12.50
2007,07,04,03,43,12.40
2007,07,04,03,44,12.40
2007,07,04,03,45,12.40
2007,07,04,03,46,12.40
2007,07,04,03,47,12.40
2007,07,04,03,48,12.40
2007,07,04,03,49,12.40
2007,07,04,03,50,12.40
2007,07,04,03,51,12.40
2007,07,04,03,52,12.50
2007,07,04,03,53,12.50
2007,07,04,03,54,12.50
2007,07,04,03,55,12.50
2007,07,04,03,56,12.40
2007,07,04,03,57,12.40
2007,07,04,03,58,12.40
2007,07,04,03,59,12.40
2007,07,04,04,00,12.40
2007,07,04,04,01,12.40
2007,07,04,04,02,12.40
2007,07,04,04,03,12.40
2007,07,04,04,04,12.40
2007,07,04,04,05,12.40
2007,07,04,04,06,12.40
2007,07,04,04,07,12.40
2007,07,04,04,08,12.40
2007,07,04,04,09,12.40
2007,07,04,04,10,12.40
2007,07,04,04,11,12.40
2007,07,04,04,12,12.40
2007,07,04,04,13,12.40
2007,07,04,04,14,12.50
2007,07,04,04,15,12.50
2007,07,04,04,16,12.50
2007,07,04,04,17,12.50
2007,07,04,04,18,12.50
2007,07,04,04,19,12.50
2007,07,04,04,20,12.50
2007,07,04,04,21,12.60
2007,07,04,04,22,12.60
2007,07,04,04,23,12.60
2007,07,04,04,24,12.60
2007,07,04,04,25,12.60
2007,07,04,04,26,12.60
2007,07,04,04,27,12.60
2007,07,04,04,28,12.60
2007,07,04,04,29,12.60
2007,07,04,04,30,12.60
2007,07,04,04,31,12.60
2007,07,04,04,32,12.60
2007,07,04,04,33,12.60
2007,07,04,04,34,12.50
2007,07,04,04,35,12.50
2007,07,04,04,36,12.40
2007,07,04,04,37,12.40
2007,07,04,04,38,12.40
2007,07,04,04,39,12.30
2007,07,04,04,40,12.30
2007,07,04,04,41,12.30
2007,07,04,04,42,12.30
2007,07,04,04,43,12.30
2007,07,04,04,44,12.30
2007,07,04,04,45,12.30
2007,07,04,04,46,12.30
2007,07,04,04,47,12.30
2007,07,04,04,48,12.20
2007,07,04,04,49,12.20
2007,07,04,04,50,12.20
2007,07,04,04,51,12.20
2007,07,04,04,52,12.20
2007,07,04,04,53,12.20
2007,07,04,04,54,12.20
2007,07,04,04,55,12.20
2007,07,04,04,56,12.20
2007,07,04,04,57,12.20
2007,07,04,04,58,12.20
2007,07,04,04,59,12.20
2007,07,04,05,00,12.20
2007,07,04,05,01,12.20
2007,07,04,05,02,12.20
2007,07,04,05,03,12.20
2007,07,04,05,04,12.20
2007,07,04,05,05,12.30
2007,07,04,05,06,12.30
2007,07,04,05,07,12.30
2007,07,04,05,08,12.30
2007,07,04,05,09,12.30
2007,07,04,05,10,12.40
2007,07,04,05,11,12.40
2007,07,04,05,12,12.40
2007,07,04,05,13,12.40
2007,07,04,05,14,12.40
2007,07,04,05,15,12.40
2007,07,04,05,16,12.50
2007,07,04,05,17,12.50
2007,07,04,05,18,12.50
2007,07,04,05,19,12.50
2007,07,04,05,20,12.50
2007,07,04,05,21,12.60
2007,07,04,05,22,12.60
2007,07,04,05,23,12.60
2007,07,04,05,24,12.60
2007,07,04,05,25,12.70
2007,07,04,05,26,12.70
2007,07,04,05,27,12.70
2007,07,04,05,28,12.70
2007,07,04,05,29,12.70
2007,07,04,05,30,12.70
2007,07,04,05,31,12.70
2007,07,04,05,32,12.70
2007,07,04,05,33,12.70
2007,07,04,05,34,12.70
2007,07,04,05,35,12.70
2007,07,04,05,36,12.70
2007,07,04,05,37,12.70
2007,07,04,05,38,12.70
2007,07,04,05,39,12.70
2007,07,04,05,40,12.70
2007,07,04,05,41,12.70
2007,07,04,05,42,12.70
2007,07,04,05,43,12.70
2007,07,04,05,44,12.70
2007,07,04,05,45,12.70
2007,07,04,05,46,12.70
2007,07,04,05,47,12.70
2007,07,04,05,48,12.70
2007,07,04,05,49,12.70
2007,07,04,05,50,12.60
2007,07,04,05,51,12.60
2007,07,04,05,52,12.70
2007,07,04,05,53,12.70
2007,07,04,05,54,12.70
2007,07,04,05,55,12.70
2007,07,04,05,56,12.70
2007,07,04,05,57,12.80
2007,07,04,05,58,12.80
2007,07,04,05,59,12.80
2007,07,04,06,00,12.80
2007,07,04,06,01,12.90
2007,07,04,06,02,12.90
2007,07,04,06,03,12.90
2007,07,04,06,04,13.00
2007,07,04,06,05,13.00
2007,07,04,06,06,13.10
2007,07,04,06,07,13.10
2007,07,04,06,08,13.20
2007,07,04,06,09,13.20
2007,07,04,06,10,13.20
2007,07,04,06,11,13.30
2007,07,04,06,12,13.30
2007,07,04,06,13,13.40
2007,07,04,06,14,13.40
2007,07,04,06,15,13.40
2007,07,04,06,16,13.40
2007,07,04,06,17,13.40
2007,07,04,06,18,13.40
2007,07,04,06,19,13.40
2007,07,04,06,20,13.50
2007,07,04,06,21,13.50
2007,07,04,06,22,13.50
2007,07,04,06,23,13.50
2007,07,04,06,24,13.60
2007,07,04,06,25,13.60
2007,07,04,06,26,13.60
2007,07,04,06,27,13.70
2007,07,04,06,28,13.70
2007,07,04,06,29,13.80
2007,07,04,06,30,13.90
2007,07,04,06,31,14.00
2007,07,04,06,32,14.00
2007,07,04,06,33,14.10
2007,07,04,06,34,14.20
2007,07,04,06,35,14.30
2007,07,04,06,36,14.30
2007,07,04,06,37,14.40
2007,07,04,06,38,14.50
2007,07,04,06,39,14.50
2007,07,04,06,40,14.60
2007,07,04,06,41,14.60
2007,07,04,06,42,14.70
2007,07,04,06,43,14.80
2007,07,04,06,44,14.80
2007,07,04,06,45,14.90
2007,07,04,06,46,15.00
2007,07,04,06,47,15.00
2007,07,04,06,48,15.00
2007,07,04,06,49,15.10
2007,07,04,06,50,15.20
2007,07,04,06,51,15.20
2007,07,04,06,52,15.30
2007,07,04,06,53,15.30
2007,07,04,06,54,15.30
2007,07,04,06,55,15.30
2007,07,04,06,56,15.30
2007,07,04,06,57,15.40
2007,07,04,06,58,15.50
2007,07,04,06,59,15.60
2007,07,04,07,00,15.70
2007,07,04,07,01,15.80
2007,07,04,07,02,15.90
2007,07,04,07,03,16.00
2007,07,04,07,04,16.10
2007,07,04,07,05,16.20
2007,07,04,07,06,16.30
2007,07,04,07,07,16.40
2007,07,04,07,08,16.50
2007,07,04,07,09,16.50
2007,07,04,07,10,16.60
2007,07,04,07,11,16.60
2007,07,04,07,12,16.70
2007,07,04,07,13,16.80
2007,07,04,07,14,16.90
2007,07,04,07,15,16.90
2007,07,04,07,16,17.00
2007,07,04,07,17,17.10
2007,07,04,07,18,17.20
2007,07,04,07,19,17.20
2007,07,04,07,20,17.30
2007,07,04,07,21,17.30
2007,07,04,07,22,17.30
2007,07,04,07,23,17.30
2007,07,04,07,24,17.40
2007,07,04,07,25,17.40
2007,07,04,07,26,17.50
2007,07,04,07,27,17.60
2007,07,04,07,28,17.60
2007,07,04,07,29,17.70
2007,07,04,07,30,17.70
2007,07,04,07,31,17.70
2007,07,04,07,32,17.70
2007,07,04,07,33,17.80
2007,07,04,07,34,17.80
2007,07,04,07,35,17.80
2007,07,04,07,36,17.80
2007,07,04,07,37,17.90
2007,07,04,07,38,17.90
2007,07,04,07,39,17.90
2007,07,04,07,40,18.00
2007,07,04,07,41,18.00
2007,07,04,07,42,18.10
2007,07,04,07,43,18.10
2007,07,04,07,44,18.10
2007,07,04,07,45,18.20
2007,07,04,07,46,18.20
2007,07,04,07,47,18.30
2007,07,04,07,48,18.20
2007,07,04,07,49,18.10
2007,07,04,07,50,18.10
2007,07,04,07,51,18.00
2007,07,04,07,52,18.00
2007,07,04,07,53,18.00
2007,07,04,07,54,18.00
2007,07,04,07,55,18.00
2007,07,04,07,56,18.00
2007,07,04,07,57,18.00
2007,07,04,07,58,18.00
2007,07,04,07,59,18.00
2007,07,04,08,00,18.00
2007,07,04,08,01,18.00
2007,07,04,08,02,18.00
2007,07,04,08,03,18.00
2007,07,04,08,04,17.90
2007,07,04,08,05,18.00
2007,07,04,08,06,18.00
2007,07,04,08,07,18.00
2007,07,04,08,08,18.10
2007,07,04,08,09,18.10
2007,07,04,08,10,18.20
2007,07,04,08,11,18.20
2007,07,04,08,12,18.20
2007,07,04,08,13,18.10
2007,07,04,08,14,18.10
2007,07,04,08,15,18.10
2007,07,04,08,16,18.00
2007,07,04,08,17,18.00
2007,07,04,08,18,18.10
2007,07,04,08,19,18.10
2007,07,04,08,20,18.10
2007,07,04,08,21,18.20
2007,07,04,08,22,18.30
2007,07,04,08,23,18.40
2007,07,04,08,24,18.40
2007,07,04,08,25,18.30
2007,07,04,08,26,18.30
2007,07,04,08,27,18.40
2007,07,04,08,28,18.40
2007,07,04,08,29,18.50
2007,07,04,08,30,18.60
2007,07,04,08,31,18.70
2007,07,04,08,32,18.70
2007,07,04,08,33,18.70
2007,07,04,08,34,18.60
2007,07,04,08,35,18.50
2007,07,04,08,36,18.40
2007,07,04,08,37,18.30
2007,07,04,08,38,18.20
2007,07,04,08,39,18.10
2007,07,04,08,40,18.00
2007,07,04,08,41,17.90
2007,07,04,08,42,17.90
2007,07,04,08,43,17.80
2007,07,04,08,44,17.80
2007,07,04,08,45,17.80
2007,07,04,08,46,17.70
2007,07,04,08,47,17.70
2007,07,04,08,48,17.70
2007,07,04,08,49,17.60
2007,07,04,08,50,17.60
2007,07,04,08,51,17.60
2007,07,04,08,52,17.60
2007,07,04,08,53,17.70
2007,07,04,08,54,17.70
2007,07,04,08,55,17.80
2007,07,04,08,56,17.90
2007,07,04,08,57,17.90
2007,07,04,08,58,17.90
2007,07,04,08,59,17.90
2007,07,04,09,00,18.00
2007,07,04,09,01,18.10
2007,07,04,09,02,18.10
2007,07,04,09,03,18.20
2007,07,04,09,04,18.20
2007,07,04,09,05,18.10
2007,07,04,09,06,18.10
2007,07,04,09,07,18.00
2007,07,04,09,08,18.00
2007,07,04,09,09,18.10
2007,07,04,09,10,18.10
2007,07,04,09,11,18.20
2007,07,04,09,12,18.30
2007,07,04,09,13,18.30
2007,07,04,09,14,18.30
2007,07,04,09,15,18.30
2007,07,04,09,16,18.30
2007,07,04,09,17,18.20
2007,07,04,09,18,18.20
2007,07,04,09,19,18.20
2007,07,04,09,20,18.20
2007,07,04,09,21,18.10
2007,07,04,09,22,18.10
2007,07,04,09,23,18.10
2007,07,04,09,24,18.10
2007,07,04,09,25,18.10
2007,07,04,09,26,18.20
2007,07,04,09,27,18.30
2007,07,04,09,28,18.40
2007,07,04,09,29,18.50
2007,07,04,09,30,18.50
2007,07,04,09,31,18.50
2007,07,04,09,32,18.40
2007,07,04,09,33,18.50
2007,07,04,09,34,18.50
2007,07,04,09,35,18.60
2007,07,04,09,36,18.60
2007,07,04,09,37,18.60
2007,07,04,09,38,18.70
2007,07,04,09,39,18.70
2007,07,04,09,40,18.70
2007,07,04,09,41,18.70
2007,07,04,09,42,18.70
2007,07,04,09,43,18.80
2007,07,04,09,44,18.90
2007,07,04,09,45,19.00
2007,07,04,09,46,19.00
2007,07,04,09,47,18.90
2007,07,04,09,48,18.80
2007,07,04,09,49,18.80
2007,07,04,09,50,18.80
2007,07,04,09,51,18.80
2007,07,04,09,52,18.80
2007,07,04,09,53,18.80
2007,07,04,09,54,18.80
2007,07,04,09,55,18.80
2007,07,04,09,56,18.70
2007,07,04,09,57,18.80
2007,07,04,09,58,18.80
2007,07,04,09,59,18.80
2007,07,04,10,00,18.80
2007,07,04,10,01,18.80
2007,07,04,10,02,18.80
2007,07,04,10,03,18.80
2007,07,04,10,04,18.90
2007,07,04,10,05,19.00
2007,07,04,10,06,19.00
2007,07,04,10,07,19.00
2007,07,04,10,08,19.00
2007,07,04,10,09,19.00
2007,07,04,10,10,19.00
2007,07,04,10,11,19.00
2007,07,04,10,12,18.90
2007,07,04,10,13,18.90
2007,07,04,10,14,18.90
2007,07,04,10,15,18.90
2007,07,04,10,16,18.90
2007,07,04,10,17,18.90
2007,07,04,10,18,18.80
2007,07,04,10,19,18.80
2007,07,04,10,20,18.70
2007,07,04,10,21,18.70
2007,07,04,10,22,18.70
2007,07,04,10,23,18.70
2007,07,04,10,24,18.70
2007,07,04,10,25,18.70
2007,07,04,10,26,18.60
2007,07,04,10,27,18.60
2007,07,04,10,28,18.60
2007,07,04,10,29,18.60
2007,07,04,10,30,18.60
2007,07,04,10,31,18.70
2007,07,04,10,32,18.70
2007,07,04,10,33,18.80
2007,07,04,10,34,18.90
2007,07,04,10,35,19.00
2007,07,04,10,36,19.10
2007,07,04,10,37,19.10
2007,07,04,10,38,19.20
2007,07,04,10,39,19.10
2007,07,04,10,40,19.10
2007,07,04,10,41,19.00
2007,07,04,10,42,19.10
2007,07,04,10,43,19.10
2007,07,04,10,44,19.20
2007,07,04,10,45,19.20
2007,07,04,10,46,19.20
2007,07,04,10,47,19.20
2007,07,04,10,48,19.20
2007,07,04,10,49,19.10
2007,07,04,10,50,19.00
2007,07,04,10,51,19.00
2007,07,04,10,52,19.00
2007,07,04,10,53,19.10
2007,07,04,10,54,19.10
2007,07,04,10,55,19.00
2007,07,04,10,56,18.90
2007,07,04,10,57,18.90
2007,07,04,10,58,18.90
2007,07,04,10,59,18.90
2007,07,04,11,00,18.90
2007,07,04,11,01,18.90
2007,07,04,11,02,19.00
2007,07,04,11,03,19.10
2007,07,04,11,04,19.10
2007,07,04,11,05,19.20
2007,07,04,11,06,19.30
2007,07,04,11,07,19.40
2007,07,04,11,08,19.50
2007,07,04,11,09,19.50
2007,07,04,11,10,19.50
2007,07,04,11,11,19.40
2007,07,04,11,12,19.40
2007,07,04,11,13,19.40
2007,07,04,11,14,19.30
2007,07,04,11,15,19.30
2007,07,04,11,16,19.30
2007,07,04,11,17,19.30
2007,07,04,11,18,19.30
2007,07,04,11,19,19.30
2007,07,04,11,20,19.30
2007,07,04,11,21,19.40
2007,07,04,11,22,19.60
2007,07,04,11,23,19.70
2007,07,04,11,24,19.80
2007,07,04,11,25,19.80
2007,07,04,11,26,19.90
2007,07,04,11,27,19.90
2007,07,04,11,28,19.90
2007,07,04,11,29,19.90
2007,07,04,11,30,19.90
2007,07,04,11,31,19.90
2007,07,04,11,32,19.80
2007,07,04,11,33,19.90
2007,07,04,11,34,20.00
2007,07,04,11,35,20.10
2007,07,04,11,36,20.30
2007,07,04,11,37,20.30
2007,07,04,11,38,20.40
2007,07,04,11,39,20.40
2007,07,04,11,40,20.30
2007,07,04,11,41,20.30
2007,07,04,11,42,20.40
2007,07,04,11,43,20.50
2007,07,04,11,44,20.60
2007,07,04,11,45,20.70
2007,07,04,11,46,20.80
2007,07,04,11,47,20.80
2007,07,04,11,48,20.70
2007,07,04,11,49,20.70
2007,07,04,11,50,20.60
2007,07,04,11,51,20.50
2007,07,04,11,52,20.50
2007,07,04,11,53,20.50
2007,07,04,11,54,20.50
2007,07,04,11,55,20.50
2007,07,04,11,56,20.40
2007,07,04,11,57,20.40
2007,07,04,11,58,20.40
2007,07,04,11,59,20.40
2007,07,04,12,00,20.40
2007,07,04,12,01,20.40
2007,07,04,12,02,20.40
2007,07,04,12,03,20.50
2007,07,04,12,04,20.50
2007,07,04,12,05,20.50
2007,07,04,12,06,20.50
2007,07,04,12,07,20.50
2007,07,04,12,08,20.60
2007,07,04,12,09,20.60
2007,07,04,12,10,20.60
2007,07,04,12,11,20.70
2007,07,04,12,12,20.70
2007,07,04,12,13,20.80
2007,07,04,12,14,20.90
2007,07,04,12,15,21.10
2007,07,04,12,16,21.20
2007,07,04,12,17,21.20
2007,07,04,12,18,21.20
2007,07,04,12,19,21.20
2007,07,04,12,20,21.20
2007,07,04,12,21,21.10
2007,07,04,12,22,21.00
2007,07,04,12,23,21.00
2007,07,04,12,24,21.00
2007,07,04,12,25,21.10
2007,07,04,12,26,21.10
2007,07,04,12,27,21.00
2007,07,04,12,28,21.00
2007,07,04,12,29,21.10
2007,07,04,12,30,21.10
2007,07,04,12,31,21.20
2007,07,04,12,32,21.20
2007,07,04,12,33,21.30
2007,07,04,12,34,21.30
2007,07,04,12,35,21.30
2007,07,04,12,36,21.30
2007,07,04,12,37,21.30
2007,07,04,12,38,21.30
2007,07,04,12,39,21.30
2007,07,04,12,40,21.40
2007,07,04,12,41,21.50
2007,07,04,12,42,21.70
2007,07,04,12,43,22.00
2007,07,04,12,44,22.20
2007,07,04,12,45,22.30
2007,07,04,12,46,22.30
2007,07,04,12,47,22.20
2007,07,04,12,48,22.10
2007,07,04,12,49,21.90
2007,07,04,12,50,21.80
2007,07,04,12,51,21.80
2007,07,04,12,52,21.90
2007,07,04,12,53,22.00
2007,07,04,12,54,22.10
2007,07,04,12,55,22.20
2007,07,04,12,56,22.30
2007,07,04,12,57,22.40
2007,07,04,12,58,22.30
2007,07,04,12,59,22.30
2007,07,04,13,00,22.20
2007,07,04,13,01,22.10
2007,07,04,13,02,22.10
2007,07,04,13,03,22.10
2007,07,04,13,04,22.10
2007,07,04,13,05,22.20
2007,07,04,13,06,22.30
2007,07,04,13,07,22.40
2007,07,04,13,08,22.50
2007,07,04,13,09,22.60
2007,07,04,13,10,22.70
2007,07,04,13,11,22.80
2007,07,04,13,12,22.80
2007,07,04,13,13,22.80
2007,07,04,13,14,22.80
2007,07,04,13,15,22.90
2007,07,04,13,16,23.00
2007,07,04,13,17,23.10
2007,07,04,13,18,23.10
2007,07,04,13,19,23.30
2007,07,04,13,20,23.40
2007,07,04,13,21,23.50
2007,07,04,13,22,23.60
2007,07,04,13,23,23.70
2007,07,04,13,24,23.50
2007,07,04,13,25,23.40
2007,07,04,13,26,23.30
2007,07,04,13,27,23.20
2007,07,04,13,28,23.10
2007,07,04,13,29,23.00
2007,07,04,13,30,23.00
2007,07,04,13,31,22.80
2007,07,04,13,32,22.70
2007,07,04,13,33,22.60
2007,07,04,13,34,22.50
2007,07,04,13,35,22.40
2007,07,04,13,36,22.30
2007,07,04,13,37,22.30
2007,07,04,13,38,22.30
2007,07,04,13,39,22.20
2007,07,04,13,40,22.10
2007,07,04,13,41,22.10
2007,07,04,13,42,22.10
2007,07,04,13,43,22.20
2007,07,04,13,44,22.30
2007,07,04,13,45,22.30
2007,07,04,13,46,22.40
2007,07,04,13,47,22.40
2007,07,04,13,48,22.50
2007,07,04,13,49,22.60
2007,07,04,13,50,22.60
2007,07,04,13,51,22.70
2007,07,04,13,52,22.70
2007,07,04,13,53,22.60
2007,07,04,13,54,22.50
2007,07,04,13,55,22.40
2007,07,04,13,56,22.30
2007,07,04,13,57,22.00
2007,07,04,13,58,21.90
2007,07,04,13,59,21.90
2007,07,04,14,00,21.90
2007,07,04,14,01,22.00
2007,07,04,14,02,22.10
2007,07,04,14,03,22.20
2007,07,04,14,04,22.30
2007,07,04,14,05,22.40
2007,07,04,14,06,22.50
2007,07,04,14,07,22.60
2007,07,04,14,08,22.70
2007,07,04,14,09,22.80
2007,07,04,14,10,22.80
2007,07,04,14,11,22.80
2007,07,04,14,12,22.90
2007,07,04,14,13,23.10
2007,07,04,14,14,23.30
2007,07,04,14,15,23.50
2007,07,04,14,16,23.70
2007,07,04,14,17,23.90
2007,07,04,14,18,24.20
2007,07,04,14,19,24.40
2007,07,04,14,20,24.50
2007,07,04,14,21,24.60
2007,07,04,14,22,24.70
2007,07,04,14,23,24.80
2007,07,04,14,24,24.80
2007,07,04,14,25,24.80
2007,07,04,14,26,24.70
2007,07,04,14,27,24.60
2007,07,04,14,28,24.50
2007,07,04,14,29,24.40
2007,07,04,14,30,24.50
2007,07,04,14,31,24.50
2007,07,04,14,32,24.60
2007,07,04,14,33,24.60
2007,07,04,14,34,24.50
2007,07,04,14,35,24.60
2007,07,04,14,36,24.60
2007,07,04,14,37,24.60
2007,07,04,14,38,24.60
2007,07,04,14,39,24.60
2007,07,04,14,40,24.70
2007,07,04,14,41,24.70
2007,07,04,14,42,24.90
2007,07,04,14,43,24.90
2007,07,04,14,44,24.80
2007,07,04,14,45,24.80
2007,07,04,14,46,24.80
2007,07,04,14,47,24.70
2007,07,04,14,48,24.60
2007,07,04,14,49,24.60
2007,07,04,14,50,24.60
2007,07,04,14,51,24.40
2007,07,04,14,52,24.30
2007,07,04,14,53,24.30
2007,07,04,14,54,24.30
2007,07,04,14,55,24.40
2007,07,04,14,56,24.30
2007,07,04,14,57,24.20
2007,07,04,14,58,24.10
2007,07,04,14,59,24.10
2007,07,04,15,00,24.10
2007,07,04,15,01,24.10
2007,07,04,15,02,24.20
2007,07,04,15,03,24.20
2007,07,04,15,04,24.30
2007,07,04,15,05,24.20
2007,07,04,15,06,24.20
2007,07,04,15,07,24.20
2007,07,04,15,08,24.30
2007,07,04,15,09,24.40
2007,07,04,15,10,24.40
2007,07,04,15,11,24.50
2007,07,04,15,12,24.50
2007,07,04,15,13,24.30
2007,07,04,15,14,24.30
2007,07,04,15,15,24.30
2007,07,04,15,16,24.20
2007,07,04,15,17,24.30
2007,07,04,15,18,24.40
2007,07,04,15,19,24.50
2007,07,04,15,20,24.50
2007,07,04,15,21,24.40
2007,07,04,15,22,24.50
2007,07,04,15,23,24.60
2007,07,04,15,24,24.60
2007,07,04,15,25,24.70
2007,07,04,15,26,24.70
2007,07,04,15,27,24.70
2007,07,04,15,28,24.70
2007,07,04,15,29,24.80
2007,07,04,15,30,24.80
2007,07,04,15,31,24.90
2007,07,04,15,32,24.90
2007,07,04,15,33,24.90
2007,07,04,15,34,24.90
2007,07,04,15,35,24.90
2007,07,04,15,36,24.90
2007,07,04,15,37,24.80
2007,07,04,15,38,24.70
2007,07,04,15,39,24.60
2007,07,04,15,40,24.50
2007,07,04,15,41,24.50
2007,07,04,15,42,24.60
2007,07,04,15,43,24.70
2007,07,04,15,44,24.70
2007,07,04,15,45,24.50
2007,07,04,15,46,24.40
2007,07,04,15,47,24.40
2007,07,04,15,48,24.40
2007,07,04,15,49,24.50
2007,07,04,15,50,24.40
2007,07,04,15,51,24.40
2007,07,04,15,52,24.40
2007,07,04,15,53,24.40
2007,07,04,15,54,24.40
2007,07,04,15,55,24.30
2007,07,04,15,56,24.30
2007,07,04,15,57,24.40
2007,07,04,15,58,24.40
2007,07,04,15,59,24.50
2007,07,04,16,00,24.50
2007,07,04,16,01,24.40
2007,07,04,16,02,24.50
2007,07,04,16,03,24.50
2007,07,04,16,04,24.60
2007,07,04,16,05,24.60
2007,07,04,16,06,24.60
2007,07,04,16,07,24.50
2007,07,04,16,08,24.50
2007,07,04,16,09,24.50
2007,07,04,16,10,24.50
2007,07,04,16,11,24.60
2007,07,04,16,12,24.70
2007,07,04,16,13,24.70
2007,07,04,16,14,24.70
2007,07,04,16,15,24.60
2007,07,04,16,16,24.60
2007,07,04,16,17,24.60
2007,07,04,16,18,24.70
2007,07,04,16,19,24.80
2007,07,04,16,20,24.80
2007,07,04,16,21,24.90
2007,07,04,16,22,24.90
2007,07,04,16,23,24.90
2007,07,04,16,24,24.80
2007,07,04,16,25,24.80
2007,07,04,16,26,24.80
2007,07,04,16,27,24.80
2007,07,04,16,28,24.90
2007,07,04,16,29,25.00
2007,07,04,16,30,25.10
2007,07,04,16,31,25.20
2007,07,04,16,32,25.40
2007,07,04,16,33,25.50
2007,07,04,16,34,25.60
2007,07,04,16,35,25.60
2007,07,04,16,36,25.60
2007,07,04,16,37,25.50
2007,07,04,16,38,25.30
2007,07,04,16,39,25.20
2007,07,04,16,40,25.20
2007,07,04,16,41,25.20
2007,07,04,16,42,25.20
2007,07,04,16,43,25.20
2007,07,04,16,44,25.20
2007,07,04,16,45,25.20
2007,07,04,16,46,25.20
2007,07,04,16,47,25.20
2007,07,04,16,48,25.20
2007,07,04,16,49,25.20
2007,07,04,16,50,25.20
2007,07,04,16,51,25.20
2007,07,04,16,52,25.30
2007,07,04,16,53,25.40
2007,07,04,16,54,25.40
2007,07,04,16,55,25.50
2007,07,04,16,56,25.50
2007,07,04,16,57,25.50
2007,07,04,16,58,25.50
2007,07,04,16,59,25.50
2007,07,04,17,00,25.50
2007,07,04,17,01,25.50
2007,07,04,17,02,25.50
2007,07,04,17,03,25.40
2007,07,04,17,04,25.40
2007,07,04,17,05,25.50
2007,07,04,17,06,25.50
2007,07,04,17,07,25.60
2007,07,04,17,08,25.60
2007,07,04,17,09,25.70
2007,07,04,17,10,25.70
2007,07,04,17,11,25.70
2007,07,04,17,12,25.70
2007,07,04,17,13,25.70
2007,07,04,17,14,25.70
2007,07,04,17,15,25.80
2007,07,04,17,16,25.90
2007,07,04,17,17,25.90
2007,07,04,17,18,25.90
2007,07,04,17,19,25.90